CAPE
1 0 0 0 0 0 0 0 0 0 0 0 0 0 0 0 0 0 0 0 0 0 6 1 18 2 0 0 9 22 14 1 36 158 250 492 516 437 437 258 332 332 48 23 70
0 0 0 0 0 0 0 0 0 0 0 0 0 0 0 0 0 0 0 0 0 0 0 0 0 0 0 0 1 21 22 0 20 65 156 415 498 410 423 293 280 139 13 36 95
0 0 0 0 0 0 0 0 0 0 0 0 0 0 0 0 0 0 0 0 0 0 0 0 0 0 0 0 13 23 1 2 50 110 104 611 453 513 404 265 311 137 15 95 112
0 0 0 0 0 0 0 0 0 0 0 0 0 0 0 0 0 0 0 0 0 0 0 0 0 0 20 3 33 20 5 0 65 1 10 413 446 469 438 382 346 90 73 133 110
0 0 0 0 0 0 0 0 0 0 0 0 0 0 0 0 0 0 0 0 0 0 0 1 0 0 7 41 23 9 0 2 2 4 27 166 554 452 489 255 173 32 138 138 121
0 0 0 0 0 0 0 0 0 0 0 0 0 0 0 0 0 0 0 0 0 0 0 0 0 0 1 59 40 25 2 0 0 0 9 339 409 468 441 204 201 66 145 171 176
0 0 0 0 0 0 0 0 0 0 0 0 0 0 0 0 0 0 0 0 0 0 0 0 0 0 3 38 43 24 0 0 0 0 0 56 314 253 335 215 191 172 134 196 234
0 0 0 0 0 0 0 0 0 0 0 0 0 0 0 0 0 0 0 0 0 0 0 0 0 6 51 82 55 17 0 0 0 0 0 45 69 367 270 201 105 150 179 184 233
0 0 0 0 0 0 0 0 0 0 0 0 0 0 0 0 0 0 0 0 0 0 0 0 0 0 81 39 8 0 0 0 0 37 1 0 34 343 350 141 134 170 97 117 98
0 0 0 0 0 0 0 0 0 0 0 0 0 0 0 0 0 0 0 0 0 0 0 0 0 0 24 12 0 0 0 0 0 0 0 0 65 259 368 281 131 66 78 58 38
0 0 0 0 0 0 0 0 0 0 0 0 0 0 0 0 0 0 0 0 0 0 0 0 0 0 0 0 0 0 0 0 14 30 10 1 0 145 305 268 256 115 39 29 44
0 0 0 0 0 0 0 0 0 0 0 0 0 0 0 0 0 0 0 0 0 0 0 0 0 0 0 0 0 0 6 1 16 55 51 21 1 34 261 212 207 186 109 55 32
0 0 0 0 0 0 0 0 0 0 0 0 0 0 0 0 0 0 0 0 0 0 0 0 0 0 0 0 1 0 14 6 7 131 142 90 8 2 33 46 34 92 85 36 46
0 0 0 0 0 0 0 0 0 0 0 0 0 0 0 0 0 0 0 0 0 0 0 0 0 0 0 0 0 1 2 14 33 13 0 75 0 0 1 1 0 0 12 65 42
0 0 0 0 0 0 0 0 0 0 0 0 0 0 0 0 0 0 0 0 0 0 0 0 0 0 0 0 0 5 7 11 47 12 9 8 0 0 0 0 0 0 0 61 139
0 0 0 0 0 0 0 0 0 0 0 0 0 0 0 0 0 0 0 0 0 0 0 0 0 0 0 0 0 0 0 0 0 0 3 0 6 0 0 13 0 0 0 0 24
0 0 0 0 0 0 0 0 0 0 0 0 0 0 0 0 0 0 0 0 0 0 0 0 0 0 0 0 0 0 0 3 0 0 0 0 38 6 19 5 5 0 0 0 1
0 0 0 0 0 0 0 0 0 0 0 0 0 0 0 0 0 0 0 0 0 0 0 0 0 0 0 0 0 0 0 0 0 0 0 0 0 3 0 63 54 134 166 34 0
0 0 0 0 0 0 0 0 0 0 0 0 0 0 0 0 0 0 0 0 0 0 0 0 0 0 0 0 0 0 0 0 0 0 0 0 0 0 0 15 77 143 225 93 11
0 0 0 0 0 0 0 0 0 0 0 0 0 0 0 0 0 0 0 0 0 0 0 0 0 0 0 0 0 0 0 0 0 3 27 0 0 0 0 2 19 377 262 170 329
0 0 0 0 0 0 0 0 0 0 0 0 0 0 0 0 0 0 0 0 0 0 0 0 0 0 0 0 0 0 0 0 0 0 23 0 0 0 4 9 36 313 188 78 112
0 0 0 0 0 0 0 0 0 0 0 0 0 0 0 0 0 0 0 0 0 0 0 0 0 0 0 0 0 0 0 0 0 0 0 0 0 0 3 16 31 11 319 194 247
0 0 0 0 0 0 0 0 0 0 0 0 0 0 0 0 0 0 0 0 0 0 0 0 0 0 0 0 0 0 0 0 0 0 2 12 0 0 17 22 16 0 22 403 294
0 0 0 0 0 0 0 0 0 0 0 0 0 0 0 0 0 0 0 0 0 0 0 0 0 0 0 0 0 0 0 0 0 0 0 0 0 0 18 40 52 57 67 454 652
0 0 0 0 0 0 0 0 0 59 44 3 0 0 0 0 0 0 0 0 0 0 0 0 0 0 0 0 0 0 0 0 0 0 0 0 0 0 0 30 64 37 81 471 784
0 0 0 0 0 0 0 6 30 75 109 146 93 56 0 0 0 0 0 0 0 0 0 0 0 0 0 0 0 0 0 0 0 0 0 0 0 0 0 3 44 105 134 523 848
0 0 0 0 0 2 0 0 7 0 94 118 109 59 76 48 13 0 0 0 0 0 0 0 0 0 0 0 0 0 0 0 0 0 0 0 0 0 2 7 46 127 272 465 972
CIN
0 0 0 0 0 0 0 0 0 0 0 0 0 0 0 0 0 0 0 0 0 0 -234 -102 -348 -146 0 0 -175 -176 -84 -49 -68 -53 -66 -54 -48 -92 -95 -76 -85 -98 -253 -427 -349
0 0 0 0 0 0 0 0 0 0 0 0 0 0 0 0 0 0 0 0 0 0 0 0 0 0 0 0 -57 -117 -78 0 -128 -117 -82 -45 -41 -60 -69 -82 -97 -205 -368 -389 -287
0 0 0 0 0 0 0 0 0 0 0 0 0 0 0 0 0 0 0 0 0 0 0 0 0 0 0 0 -134 -128 -8 -41 -112 -120 -105 -34 -40 -76 -60 -66 -84 -146 -357 -269 -262
0 0 0 0 0 0 0 0 0 0 0 0 0 0 0 0 0 0 0 0 0 0 0 0 0 0 -98 -29 -172 -72 -120 0 -112 -8 -89 -40 -54 -45 -53 -28 -77 -223 -301 -199 -226
0 0 0 0 0 0 0 0 0 0 0 0 0 0 0 0 0 0 0 0 0 0 0 -19 0 0 -72 -114 -143 -100 0 -70 -59 -109 -109 -69 -30 -24 -43 -74 -121 -273 -230 -203 -172
0 0 0 0 0 0 0 0 0 0 0 0 0 0 0 0 0 0 0 0 0 0 0 0 0 0 -11 -121 -132 -163 -115 0 0 0 -147 -56 -48 -34 -67 -116 -135 -209 -163 -149 -174
0 0 0 0 0 0 0 0 0 0 0 0 0 0 0 0 0 0 0 0 0 0 0 0 0 0 -191 -161 -210 -191 0 0 0 0 -8 -118 -41 -53 -84 -99 -102 -143 -152 -143 -140
0 0 0 0 0 0 0 0 0 0 0 0 0 0 0 0 0 0 0 0 0 0 0 0 0 -165 -175 -241 -202 -156 0 0 -31 -2 0 -135 -97 -101 -132 -105 -98 -142 -121 -133 -145
0 0 0 0 0 0 0 0 0 0 0 0 0 0 0 0 0 0 0 0 0 0 0 0 0 0 -188 -139 -95 -15 0 0 0 -163 -69 0 -143 -145 -163 -137 -115 -149 -212 -163 -125
0 0 0 0 0 0 0 0 0 0 0 0 0 0 0 0 0 0 0 0 0 0 0 0 0 0 -156 -110 0 0 0 0 0 0 0 0 -127 -172 -175 -162 -152 -170 -188 -200 -212
0 0 0 0 0 0 0 0 0 0 0 0 0 0 0 0 0 0 0 0 0 0 0 0 0 0 0 0 0 0 0 0 -113 -190 -155 -80 -1 -193 -217 -213 -176 -198 -270 -262 -223
0 0 0 0 0 0 0 0 0 0 0 0 0 0 0 0 0 0 0 0 0 0 0 0 0 0 0 0 0 0 -106 -31 -119 -193 -186 -162 -44 -262 -244 -216 -218 -204 -227 -245 -305
0 0 0 0 0 0 0 0 0 0 0 0 0 0 0 0 0 0 0 0 0 0 0 0 0 0 0 0 -42 0 -111 -115 -52 -122 -167 -190 -109 -214 -172 -305 -367 -312 -258 -263 -241
0 0 0 0 0 0 0 0 0 0 0 0 0 0 0 0 0 0 0 0 0 0 0 0 0 0 0 0 0 -38 -37 -82 -85 -119 -129 -206 0 0 -129 -110 0 0 -353 -280 -271
0 0 0 0 0 0 0 0 0 0 0 0 0 0 0 0 0 0 0 0 0 0 0 0 0 0 0 0 0 -43 -141 -110 -133 -161 -164 -80 -3 0 0 0 0 -24 0 -276 -266
0 0 0 0 0 0 0 0 0 0 0 0 0 0 0 0 0 0 0 0 0 0 0 0 0 0 0 0 0 0 0 0 0 0 -65 0 -172 0 -32 -174 -14 0 0 0 -295
0 0 0 0 0 0 0 0 0 0 0 0 0 0 0 0 0 0 0 0 0 0 0 0 0 0 0 0 0 0 0 -57 0 0 0 0 -180 -87 -127 -303 -293 0 0 0 -150
0 0 0 0 0 0 0 0 0 0 0 0 0 0 0 0 0 0 0 0 0 0 0 0 0 0 0 0 0 0 0 0 0 0 0 0 -6 -143 0 -316 -411 -314 -329 -384 0
0 0 0 0 0 0 0 0 0 0 0 0 0 0 0 0 0 0 0 0 0 0 0 0 0 0 0 0 0 0 0 0 0 0 0 0 0 0 0 -307 -326 -291 -293 -303 -95
0 0 0 0 0 0 0 0 0 0 0 0 0 0 0 0 0 0 0 0 0 0 0 0 0 0 0 0 0 0 0 0 0 -12 -12 0 0 0 0 -94 -288 -221 -253 -291 -280
0 0 0 0 0 0 0 0 0 0 0 0 0 0 0 0 0 0 0 0 0 0 0 0 0 0 0 0 0 0 0 0 0 0 -17 0 -18 0 -59 -174 -229 -224 -307 -369 -373
0 0 0 0 0 0 0 0 0 0 0 0 0 0 0 0 0 0 0 0 0 0 0 0 0 0 0 0 0 0 0 0 0 0 0 -1 0 0 -117 -236 -295 -357 -322 -397 -401
0 0 0 0 0 0 0 0 0 0 0 0 0 0 0 0 0 0 0 0 0 0 0 0 0 0 0 0 0 0 0 0 0 0 -55 -32 0 0 -201 -216 -367 -5 -466 -397 -407
0 0 0 0 0 0 0 0 0 0 0 0 0 0 0 0 0 0 0 0 0 0 0 0 0 0 0 0 0 0 0 0 0 0 0 0 0 0 -103 -120 -285 -349 -411 -384 -339
0 0 0 0 0 0 0 0 0 -141 -208 -171 0 0 0 0 0 0 0 0 0 0 0 0 0 0 0 0 0 0 0 0 0 0 0 0 0 0 0 -105 -162 -426 -430 -351 -293
0 0 0 0 0 0 0 -203 -153 -173 -173 -116 -145 -165 0 0 0 0 0 0 0 0 0 0 0 0 0 0 0 0 0 0 0 0 0 0 0 0 0 -177 -365 -348 -384 -330 -260
0 0 0 0 0 -147 -57 0 -192 0 -171 -189 -196 -185 -127 -164 -270 -34 0 0 0 0 0 0 0 0 0 0 0 0 0 0 0 0 0 0 0 0 -194 -212 -185 -342 -391 -333 -230
Wind_Speed
20 21 21 22 22 23 23 24 24 24 24 24 24 23 23 24 25 15 10 7 8 11 12 14 15 16 15 14 13 15 19 22 15 15 12 16 17 18 18 19 14 12 17 21 26
21 21 22 22 23 23 24 24 25 24 24 24 24 23 23 23 23 23 13 13 7 9 11 15 16 15 16 15 16 13 17 17 14 13 14 15 16 17 17 17 14 17 19 21 24
22 22 23 23 23 24 24 25 25 25 25 24 24 23 23 22 19 10 17 15 10 6 10 14 16 15 15 15 14 15 16 17 18 16 14 16 15 16 16 15 14 16 21 22 24
23 23 23 24 24 24 25 25 25 26 25 25 24 24 23 19 10 10 13 9 10 7 10 13 15 16 16 14 14 15 16 17 19 20 13 17 16 15 14 12 15 17 21 23 24
24 24 24 25 25 25 26 26 26 26 26 25 24 23 19 17 9 12 10 9 8 9 10 12 17 17 16 16 15 13 17 16 16 17 11 15 16 15 15 14 15 16 20 23 26
25 25 26 26 26 27 27 27 27 27 26 25 24 22 17 15 12 9 18 16 6 8 10 13 14 14 15 17 15 13 14 15 15 11 10 17 18 17 15 16 17 18 22 23 25
26 26 27 27 28 28 28 28 28 27 27 25 22 18 17 14 17 23 23 20 5 7 9 11 13 14 14 16 16 14 15 15 12 14 13 16 10 16 18 19 20 20 23 23 23
27 28 28 29 29 30 30 29 29 28 26 21 17 17 20 18 23 26 15 14 10 5 7 10 13 14 15 15 17 18 16 17 12 13 14 9 12 17 18 20 21 21 22 25 22
28 29 29 30 30 31 31 30 28 22 16 15 16 16 22 22 16 18 6 2 4 5 6 10 12 12 13 14 18 20 20 12 15 13 15 14 15 16 17 18 19 21 21 21 20
29 30 31 31 31 32 31 28 21 17 16 17 17 18 20 14 16 21 11 5 6 5 6 8 10 10 11 13 19 19 20 11 12 14 12 15 9 15 16 17 16 17 18 19 19
30 31 31 31 32 32 27 19 21 20 19 16 16 17 21 21 19 15 11 6 8 9 8 8 6 7 10 10 7 13 13 4 14 14 14 12 13 15 15 17 17 19 18 18 18
31 32 32 32 32 25 19 18 16 19 26 29 33 29 27 21 20 17 11 9 10 13 9 9 6 4 13 12 10 12 12 14 15 14 16 15 13 13 11 15 15 17 17 17 18
32 32 32 32 29 19 22 17 18 24 23 25 20 20 22 10 16 17 9 10 10 7 9 7 6 10 17 17 10 12 12 13 15 14 16 18 18 13 17 7 9 14 16 17 19
32 32 32 33 20 23 20 17 26 16 22 21 18 18 12 10 17 17 11 10 12 5 7 12 7 18 19 13 8 9 7 12 13 17 19 20 21 12 6 17 15 13 16 16 17
32 32 32 27 26 20 17 24 19 16 23 18 16 15 13 10 13 15 16 14 11 8 9 7 5 9 15 14 6 11 10 14 15 17 19 16 19 20 18 13 11 14 11 13 13
32 32 31 22 22 22 23 22 14 19 22 17 13 15 11 18 15 14 15 15 14 12 14 10 8 8 10 14 5 11 13 16 17 17 19 20 14 20 20 19 14 5 13 13 16
33 33 29 22 20 18 21 15 20 21 19 17 19 16 15 17 17 14 13 13 12 8 11 17 17 14 10 16 11 10 12 19 18 18 19 19 14 15 19 19 18 12 13 11 18
34 32 23 19 18 18 14 16 22 19 19 20 22 17 16 13 20 16 14 14 18 15 11 8 12 11 10 9 13 10 5 13 17 19 19 16 16 22 22 21 8 10 19 17 16
32 26 22 18 13 15 13 20 20 18 18 21 19 15 17 17 17 19 20 20 19 14 11 8 15 16 13 11 9 12 10 10 17 20 21 18 24 25 15 16 16 14 18 9 12
28 24 19 17 5 10 16 22 20 16 20 20 18 16 18 18 18 17 19 18 19 16 17 14 12 18 15 13 15 14 10 15 17 17 16 17 20 12 11 8 8 14 16 12 16
22 18 19 11 9 13 19 22 23 23 22 19 19 22 19 18 17 19 18 21 17 18 16 15 14 14 13 13 9 13 15 17 14 14 17 17 9 8 6 7 7 9 12 14 20
20 16 16 10 12 16 20 19 20 22 23 24 21 20 19 19 21 18 20 24 14 9 11 14 13 16 17 16 14 13 12 10 15 15 15 14 12 19 15 13 6 8 10 11 11
21 15 11 16 15 17 19 19 20 23 20 18 20 19 20 21 19 17 16 16 12 11 12 8 13 14 18 18 16 15 15 13 14 15 12 14 8 19 18 14 6 5 8 9 10
17 13 13 15 16 17 20 21 20 21 24 20 21 21 21 21 19 19 18 16 16 18 16 8 14 10 8 15 14 16 16 13 12 19 18 8 11 5 1 1 4 6 6 7 7
15 12 14 14 21 20 20 20 22 20 19 18 19 20 21 22 21 18 18 19 15 12 13 12 18 14 15 16 17 18 16 13 11 13 18 22 4 14 13 12 9 1 3 5 6
17 14 17 18 20 19 19 20 19 20 20 18 19 25 23 21 21 21 19 17 15 15 13 17 21 20 24 16 17 18 22 17 15 17 11 19 31 4 5 3 10 8 5 7 7
18 17 16 19 19 19 20 19 19 20 21 23 22 21 20 20 25 27 23 23 18 17 16 16 16 18 20 17 17 25 26 21 18 15 17 22 9 12 5 5 13 9 10 10 10
Wind_Direction
305 302 298 294 292 292 291 289 287 287 286 285 286 286 284 285 279 321 329 72 24 76 34 31 17 23 41 50 97 79 45 37 75 73 97 97 80 80 73 80 134 168 111 114 118
307 305 302 298 294 292 289 287 283 281 282 282 280 279 282 286 285 256 149 136 70 71 22 18 20 39 49 67 67 66 36 43 86 89 82 119 115 95 68 86 124 13 62 98 113
310 307 305 301 298 295 291 289 284 279 280 279 277 277 281 287 303 359 267 135 117 64 9 8 21 39 58 61 90 65 57 51 52 85 139 115 128 125 72 105 125 92 102 112 118
311 310 308 304 301 297 293 290 287 282 281 277 277 278 280 318 358 359 315 29 88 35 35 26 42 47 38 60 98 77 85 74 50 11 163 92 87 138 97 203 116 107 115 120 127
310 309 308 308 304 298 293 289 286 284 282 279 278 283 309 322 19 289 321 335 36 53 48 36 35 52 36 53 72 93 46 73 85 323 238 119 114 155 169 320 69 94 116 129 139
310 308 306 304 304 302 295 288 284 282 281 279 280 285 314 318 312 321 264 281 20 37 24 34 55 61 42 38 51 110 75 87 142 166 176 74 98 93 153 55 64 105 126 133 141
309 307 305 303 300 300 295 288 283 281 280 282 288 307 306 182 279 251 250 265 58 12 18 41 79 44 40 35 63 170 261 247 172 67 23 64 205 95 86 95 91 110 134 141 145
309 308 305 302 299 297 293 288 283 280 282 292 306 309 292 296 268 247 291 279 131 27 43 30 69 40 33 35 5 14 310 31 126 64 318 49 254 79 97 100 115 118 134 151 149
309 307 305 302 299 297 293 288 286 297 311 316 310 307 280 288 295 282 341 45 338 5 10 6 23 24 30 33 3 1 5 93 8 175 255 259 294 104 112 111 117 132 131 141 151
309 306 303 303 300 297 293 290 301 309 308 304 300 302 283 301 297 277 300 319 309 328 350 1 12 23 14 9 340 6 8 163 199 244 304 283 145 104 123 128 128 132 138 145 147
306 305 304 303 300 297 298 304 298 298 294 297 302 292 277 278 291 282 292 302 298 298 290 333 0 86 35 128 111 22 43 160 274 243 358 95 104 116 127 152 153 158 154 158 161
305 305 305 303 301 303 310 302 311 307 287 270 246 269 267 282 282 284 285 282 279 269 282 304 311 96 345 30 94 43 34 353 301 313 289 216 168 145 125 156 155 160 164 168 174
306 306 305 303 299 307 298 301 310 307 293 284 284 282 273 296 282 273 290 282 282 244 260 270 298 312 297 317 43 55 65 17 332 349 347 290 253 150 178 127 134 170 176 180 183
307 308 309 305 308 301 292 307 301 311 291 289 288 286 280 288 284 269 282 283 285 212 252 276 287 280 288 329 42 67 44 14 345 329 313 341 321 317 21 188 182 172 180 183 185
303 305 307 309 295 296 298 300 306 306 278 297 289 300 279 265 298 271 269 276 275 275 268 267 272 278 290 318 66 25 59 345 330 317 338 3 350 307 331 5 170 181 178 183 186
299 301 304 313 302 290 287 298 307 285 273 292 298 289 276 262 284 286 266 272 273 277 278 276 300 296 299 313 61 360 349 326 330 338 330 341 1 333 327 336 354 100 182 181 185
294 294 299 307 295 298 291 299 281 270 291 286 290 288 278 263 264 287 259 259 268 258 261 269 269 285 304 297 320 330 326 299 318 324 326 335 348 345 340 343 343 9 359 177 187
293 289 309 306 297 294 292 282 270 280 280 291 290 283 275 276 259 274 269 261 265 274 274 233 213 264 290 292 298 320 349 315 321 328 331 341 345 325 326 319 112 129 238 206 177
296 308 305 305 298 285 279 267 271 277 288 291 284 278 276 272 274 261 267 265 263 261 273 259 266 272 276 282 304 309 314 326 317 324 317 332 304 272 263 240 207 199 209 131 153
303 307 308 311 338 292 274 266 269 279 288 292 275 284 275 274 269 263 261 272 264 261 264 281 276 261 272 279 289 300 335 316 311 316 325 336 328 343 319 87 93 193 186 145 176
319 315 312 315 308 286 272 268 268 272 285 282 274 279 272 277 274 265 270 269 275 263 261 264 279 270 262 268 271 294 305 317 320 317 318 328 7 31 55 84 69 80 128 159 197
320 316 317 312 296 286 274 275 276 272 278 275 273 268 271 279 275 272 272 268 282 246 253 260 282 265 264 280 289 292 305 322 314 311 318 323 216 328 342 355 50 59 101 115 114
313 332 332 300 287 281 279 278 276 272 274 276 268 267 276 273 273 272 284 288 269 263 256 255 277 279 272 273 281 288 299 314 319 318 313 314 230 325 314 336 32 75 68 62 50
320 330 314 292 286 282 278 278 275 271 268 271 270 276 271 266 270 275 285 291 290 274 263 247 275 275 255 274 281 286 291 309 320 317 319 317 217 216 218 10 353 115 40 36 51
317 332 307 302 275 277 279 276 274 268 265 273 272 270 271 262 267 272 283 290 299 300 274 254 269 276 283 280 285 283 290 300 311 324 317 312 335 219 210 201 174 13 46 73 95
300 315 298 288 277 276 275 273 273 268 264 267 273 274 269 263 266 272 283 291 291 297 286 273 274 275 274 282 286 291 286 290 304 310 323 317 274 332 9 58 157 159 148 134 120
293 298 303 284 277 278 275 274 271 272 264 261 274 277 273 275 272 263 273 275 289 291 289 283 281 280 271 286 297 293 291 284 291 304 314 315 273 336 7 159 165 149 149 146 143